Weather History for Eelde, Netherlands

Change the Weather History Date:

Sunday, October 27, 2013

  Actual Average Record
Temperature  
Mean Temperature 57 °F -  
Max Temperature 59 °F 48 °F 69 °F (2005)
Min Temperature 55 °F 37 °F 23 °F (2003)
Degree Days  
Heating Degree Days 8    
Growing Degree Days 7 (Base 50)    
Moisture  
Dew Point 52 °F    
Average Humidity 81    
Maximum Humidity 94    
Minimum Humidity 61    
Precipitation  
Precipitation 0.16 in 0.10 in - ()
Sea Level Pressure  
Sea Level Pressure 29.49 in    
Wind  
Wind Speed 16 mph ()    
Max Wind Speed 32 mph    
Max Gust Speed 47 mph    
Visibility 6.9 miles    
Events Rain    
Averages and records for this station are not official NWS values.
T = Trace of Precipitation, MM = Missing Value Source: Averaged Metar Reports

Daily Weather History Graph

Daily Weather History Graph

Search for Another Location

Airport:

Trip Planner

Search our weather history database for the weather conditions in past years. The results will help you decide how hot, cold, wet, or windy it might be!

Date:

Astronomy

Oct. 27, 2013 Rise Set
Actual Time 7:22 AM CET 5:11 PM CET
Civil Twilight 6:46 AM CET 5:47 PM CET
Nautical Twilight 6:05 AM CET 6:28 PM CET
Astronomical Twilight 5:25 AM CET 7:08 PM CET
Moon No Moon Rise 2:03 PM CET (10/27)
Length of Visible Light 11h 01m
Length of Day
9h 49m
Last Quarter, 45% of the Moon is Illuminated
Oct 27
Last Quarter
Nov 3
New
Nov 10
First Quarter
Nov 17
Full
Nov 25
Last Quarter

Hourly Weather History & Observations

Time (CET) Temp. Dew Point Humidity Pressure Visibility Wind Dir Wind Speed Gust Speed Precip Events Conditions
12:25 AM 57.2 °F 53.6 °F 88% 29.68 in 6.2 mi South 9.2 mph - N/A   Scattered Clouds
12:55 AM 57.2 °F 53.6 °F 88% 29.65 in 6.2 mi South 11.5 mph - N/A   Unknown
1:25 AM 57.2 °F 55.4 °F 94% 29.65 in 6.2 mi South 11.5 mph - N/A   Scattered Clouds
1:55 AM 57.2 °F 55.4 °F 94% 29.65 in 6.2 mi South 12.7 mph - N/A   Partly Cloudy
2:00 AM 58 °F 55 °F 87% 29.65 in 11 mi South 11.2 mph - -   Partly Cloudy
2:25 AM 59.0 °F 55.4 °F 88% 29.62 in 6.2 mi South 12.7 mph - N/A   Unknown
2:55 AM 59.0 °F 55.4 °F 88% 29.62 in 6.2 mi South 11.5 mph - N/A   Unknown
2:25 AM 59.0 °F 55.4 °F 88% 29.62 in 6.2 mi South 10.4 mph - N/A   Unknown
2:55 AM 59.0 °F 55.4 °F 88% 29.59 in 6.2 mi SSW 12.7 mph - N/A   Unknown
3:25 AM 59.0 °F 55.4 °F 88% 29.59 in 6.2 mi SSW 15.0 mph - N/A   Unknown
3:55 AM 59.0 °F 53.6 °F 82% 29.59 in 6.2 mi SSW 13.8 mph - N/A   Scattered Clouds
4:00 AM 58 °F 54 °F 81% 29.59 in 19 mi South 13.4 mph - -   Scattered Clouds
4:25 AM 59.0 °F 53.6 °F 82% 29.56 in 6.2 mi SSW 16.1 mph - N/A   Unknown
4:55 AM 57.2 °F 53.6 °F 88% 29.56 in 6.2 mi SSW 15.0 mph - N/A   Unknown
5:25 AM 57.2 °F 53.6 °F 88% 29.53 in 6.2 mi SSW 15.0 mph - N/A   Unknown
5:55 AM 57.2 °F 51.8 °F 82% 29.53 in 6.2 mi SSW 13.8 mph - N/A   Partly Cloudy
6:25 AM 57.2 °F 51.8 °F 82% 29.50 in 6.2 mi South 13.8 mph - N/A   Mostly Cloudy
6:55 AM 57.2 °F 51.8 °F 82% 29.50 in 6.2 mi South 17.3 mph - N/A   Scattered Clouds
7:00 AM 57 °F 52 °F 79% 29.50 in 22 mi South 15.7 mph - -   Partly Cloudy
7:25 AM 57.2 °F 51.8 °F 82% 29.47 in 6.2 mi South 15.0 mph - N/A   Partly Cloudy
7:55 AM 57.2 °F 51.8 °F 82% 29.47 in 6.2 mi South 17.3 mph - N/A   Overcast
8:25 AM 57.2 °F 51.8 °F 82% 29.44 in 6.2 mi South 19.6 mph 35.7 mph N/A   Overcast
8:55 AM 59.0 °F 51.8 °F 77% 29.42 in 6.2 mi South 18.4 mph 29.9 mph N/A   Overcast
9:25 AM 57.2 °F 53.6 °F 88% 29.42 in 3.7 mi South 20.7 mph 32.2 mph N/A Rain Light Rain Showers
9:55 AM 57.2 °F 53.6 °F 88% 29.42 in 6.2 mi South 19.6 mph - N/A Rain Light Rain
10:00 AM 57 °F 54 °F 86% 29.41 in 15 mi South 20.1 mph - - Rain Rain
10:25 AM 57.2 °F 53.6 °F 88% 29.39 in 6.2 mi SSW 20.7 mph 33.4 mph N/A   Heavy Drizzle
10:55 AM 57.2 °F 53.6 °F 88% 29.39 in 3.7 mi SSW 20.7 mph 32.2 mph N/A   Drizzle
11:25 AM 57.2 °F 53.6 °F 88% 29.39 in 6.2 mi WSW 17.3 mph - N/A Rain Light Rain
11:55 AM 59.0 °F 53.6 °F 82% 29.39 in 6.2 mi SW 25.3 mph 36.8 mph N/A   Overcast
12:25 PM 59.0 °F 53.6 °F 82% 29.39 in 6.2 mi SW 24.2 mph - N/A   Mostly Cloudy
12:55 PM 59.0 °F 51.8 °F 77% 29.39 in 6.2 mi SW 32.2 mph 47.2 mph N/A   Mostly Cloudy
1:00 PM 58 °F 50 °F 66% 29.39 in 16 mi SW 29.1 mph - - Rain Rain
1:25 PM 57.2 °F 50.0 °F 77% 29.36 in 6.2 mi SW 29.9 mph - N/A   Overcast
1:55 PM 59.0 °F 50.0 °F 72% 29.42 in 6.2 mi WSW 27.6 mph 41.4 mph N/A   Mostly Cloudy
2:25 PM 59.0 °F 48.2 °F 67% 29.42 in 6.2 mi WSW 23.0 mph 34.5 mph N/A   Scattered Clouds
2:55 PM 59.0 °F 48.2 °F 67% 29.42 in 6.2 mi WSW 27.6 mph 41.4 mph N/A   Partly Cloudy
3:25 PM 57.2 °F 50.0 °F 77% 29.42 in 6.2 mi SW 26.5 mph 38.0 mph N/A   Mostly Cloudy
3:55 PM 57.2 °F 48.2 °F 72% 29.44 in 6.2 mi SW 25.3 mph - N/A   Mostly Cloudy
4:00 PM 58 °F 48 °F 61% 29.46 in 12 mi SW 26.8 mph - -   Overcast
4:25 PM 57.2 °F 48.2 °F 72% 29.44 in 6.2 mi SW 29.9 mph - N/A   Mostly Cloudy
4:55 PM 57.2 °F 48.2 °F 72% 29.44 in 6.2 mi SW 24.2 mph - N/A   Partly Cloudy
5:25 PM 57.2 °F 48.2 °F 72% 29.44 in 6.2 mi SW 21.9 mph - N/A   Mostly Cloudy
5:55 PM 55.4 °F 50.0 °F 82% 29.47 in 6.2 mi SW 20.7 mph 32.2 mph N/A Rain Light Rain
6:25 PM 55.4 °F 50.0 °F 82% 29.47 in 6.2 mi SW 20.7 mph - N/A   Partly Cloudy
6:55 PM 55.4 °F 50.0 °F 82% 29.44 in 6.2 mi SSW 21.9 mph - N/A   Partly Cloudy
7:00 PM 56 °F 49 °F 72% 29.47 in 9 mi SSW 24.6 mph - - Rain Rain
7:25 PM 55.4 °F 50.0 °F 82% 29.44 in 6.2 mi SSW 20.7 mph - N/A   Mostly Cloudy
7:55 PM 55.4 °F 50.0 °F 82% 29.44 in 6.2 mi SSW 23.0 mph - N/A   Mostly Cloudy
8:25 PM 57.2 °F 50.0 °F 77% 29.44 in 6.2 mi SW 23.0 mph - N/A   Mostly Cloudy
8:55 PM 57.2 °F 50.0 °F 77% 29.47 in 6.2 mi SW 26.5 mph 38.0 mph N/A   Scattered Clouds
9:25 PM 57.2 °F 50.0 °F 77% 29.47 in 6.2 mi SW 25.3 mph - N/A   Light Drizzle
9:55 PM 55.4 °F 50.0 °F 82% 29.47 in 6.2 mi SW 23.0 mph - N/A   Mostly Cloudy
10:00 PM 55 °F 51 °F 83% 29.48 in 6 mi SW 22.4 mph - - Rain Heavy Rain
10:25 PM 55.4 °F 50.0 °F 82% 29.47 in 6.2 mi SW 24.2 mph 35.7 mph N/A   Mostly Cloudy
10:55 PM 55.4 °F 50.0 °F 82% 29.47 in 6.2 mi SW 24.2 mph - N/A   Overcast